Location: Anderson Lake
(32.2944°N, 83.5256°W)
Time: 19:49:28
(UTC+00:00)

Daily predictions for brighter satellites

Satellite Brightness Start Highest point End
(mag) Time Altitude Azimuth Time Altitude Azimuth Time Altitude Azimuth
Cosmos 1125 Rocket 4.4 22:49:37 10° N 22:54:00 27° ENE 22:58:22 10° SE
Cosmos 2184 Rocket 4.1 22:49:11 10° N 22:55:35 90° WNW 23:01:55 10° S
Cosmos 2219 Rocket 4.3 22:52:01 10° WSW 22:56:36 25° WNW 23:01:14 10° N
CZ-4B R/B 3.1 22:53:56 10° SSE 22:59:17 66° ENE 23:04:34 10° N
NOAA 12 4.1 22:54:39 10° SSE 22:59:53 62° ENE 23:05:09 10° N
H-2A R/B 4.5 22:57:02 10° SSW 23:00:33 38° W 23:04:07 10° NNW
AQUARIUS 4.2 22:57:13 10° SSE 23:01:36 57° ENE 23:06:01 10° N
Orbus 7S 4.0 22:59:05 10° WSW 23:01:45 30° S 23:04:07 10° ESE
USA 215 3.8 22:56:48 10° NNE 23:03:10 56° NW 23:09:30 10° WSW
DELTA 2 R/B (1) 3.6 22:58:20 10° WNW 23:03:54 89° NNE 23:09:27 10° ESE
FengYun 1-2 T 4.5 22:58:43 10° SE 23:04:00 46° ENE 23:09:15 10° N
Aureole 2 Rocket 2.9 23:01:30 10° NNW 23:04:16 52° WSW 23:07:07 10° S
H-2A R/B 3.2 23:00:17 10° S 23:04:40 62° WSW 23:08:56 10° NNW
Cosmos 2237 Rocket 2.5 22:59:05 10° SSW 23:04:40 73° WNW 23:10:18 10° NNE
NOAA 11 4.4 23:01:51 10° SE 23:06:59 46° ENE 23:12:08 10° N
ATLAS 3B CENTAUR R/B 1.7 23:06:16 10° SW 23:07:49 21° SSE 23:09:43 10° ESE
COSMO-SKYMED 1 3.1 23:06:17 10° NNE 23:10:20 38° E 23:14:22 10° SSE
Cosmos 1743 Rocket 3.9 23:06:35 10° N 23:11:03 74° W 23:15:27 10° S
Okean O Rocket 1.5 23:08:18 10° SSE 23:12:36 80° ENE 23:16:58 10° N
YAOGAN 6 3.8 23:09:53 10° S 23:13:27 48° W 23:17:00 10° NNW
Cosmos 1933 4.1 23:10:00 10° SSE 23:13:34 32° E 23:17:10 10° NNE
Envisat 4.2 23:11:12 10° S 23:16:04 48° W 23:20:59 10° NNW
SL-24 R/B 4.4 23:15:14 10° NNE 23:18:50 34° E 23:22:12 10° SSE
Cosmos 405 Rocket 3.1 23:15:14 10° NNW 23:19:08 69° W 23:23:05 10° S
CORIOLIS 4.1 23:15:03 10° SSE 23:20:25 87° ENE 23:25:51 10° NNW
Sich 1 3.3 23:18:02 10° N 23:22:15 46° E 23:26:25 10° SSE
X-37B 2.8 23:20:52 10° SSE 23:22:27 13° SE 23:23:28 12° ESE
H-2A R/B 3.8 23:25:29 13° NE 23:25:29 13° NE 23:26:52 10° NE
PSLV R/B 4.4 23:21:03 10° NNE 23:24:49 37° E 23:28:33 10° SSE
SL-23 DEB 3.9 23:23:50 10° SSW 23:27:06 59° SE 23:30:30 17° NE
Helios 1A Rocket 4.4 23:24:49 10° ESE 23:28:32 17° NE 23:30:20 10° NNE
Cosmos 389 Rocket 2.8 23:27:42 10° SSW 23:31:07 66° W 23:34:31 10° N
Cosmos 1805 Rocket 3.5 23:26:51 10° N 23:31:20 87° E 23:35:44 10° S
USA 267 4.3 23:27:58 16° ENE 23:31:29 24° NNE 23:36:31 10° NNW
Cosmos 1151 Rocket 3.3 23:28:25 10° SSE 23:32:31 45° E 23:36:37 10° NNE
Cosmos 773 Rocket 4.5 23:28:13 10° S 23:33:03 39° E 23:37:15 13° NE
Cosmos 1782 3.8 23:31:11 10° SE 23:34:24 25° E 23:35:11 23° ENE
SKYMED 3 4.5 23:30:04 10° NNE 23:34:25 78° E 23:38:45 10° S
Cosmos 2218 Rocket 4.4 23:29:25 10° NNE 23:35:03 37° E 23:40:39 10° SE
SMAP 4.1 23:30:51 10° S 23:35:20 48° W 23:39:51 10° NNW
Cosmos 1606 3.3 23:31:50 10° SSW 23:35:40 59° W 23:39:30 10° N
Cosmos 1328 Rocket 3.8 23:32:03 10° SSE 23:36:06 43° E 23:40:11 10° NNE
Cosmos 1666 Rocket 3.9 23:33:13 10° N 23:37:25 42° E 23:41:37 10° SSE
Cosmos 783 Rocket 4.5 23:32:27 10° S 23:37:42 67° ESE 23:42:58 10° NNE
BREEZE-M DEB (TANK) 4.2 23:30:28 10° SW 23:45:38 86° SE 23:48:28 24° NE
Cosmos 2366 rocket 4.2 23:41:22 10° N 23:47:15 45° E 23:53:04 10° SSE
SL-24 DEB 4.4 23:43:39 10° NNE 23:48:14 48° E 23:52:46 10° SSE
Cosmos 2297 4.5 23:44:55 10° N 23:49:46 28° ENE 23:50:36 27° ENE
Meteor 1-26 Rocket 4.3 23:45:49 10° S 23:51:40 64° E 23:57:38 10° NNE
SL-16 R/B 2.2 23:46:16 10° SSW 23:51:55 86° WNW 23:57:37 10° NNE
Lacrosse 5 rocket 1.2 23:50:43 10° SW 23:54:24 65° NW 23:55:53 32° NNE
Abrixas rocket 4.0 23:54:56 10° NNW 23:55:50 16° NNW 23:55:50 16° NNW
